Location: Moscow
(55.7500°N, 37.5830°E)
Time: 16:21:08
(UTC+03:00)

Transit 2A - Pass Details

Date: 09 December 2021
Orbit: 591 x 967 km, 66.7° (Epoch: 17 January)

Event Time Altitude Azimuth Distance (km) Brightness Sun altitude
Rises 00:33:16 0° 225° (SW) 3,402 - -57.0°
Reaches altitude 10° 00:35:39 10° 227° (SW) 2,520 - -57.0°
Maximum altitude 00:41:35 82° 314° (NW) 941 - -56.9°
Drops below altitude 10° 00:47:58 10° 44° (NE) 2,702 - -56.7°
Sets 00:50:36 0° 45° (NE) 3,664 - -56.6°
Exits shadow 00:50:38 - 45° (NE) 3,677 9.9 -56.6°
